Wind_Speed
37 36 35 34 34 34 35 34 33 30 30 28 28 29 29 28 28 28 28 27 28 28 29 30 31 32 32 33 34 35 36 37 38 39 41 43 44 45 46 46 47 48 49 50
37 36 35 35 34 33 33 32 31 31 29 27 29 29 29 29 28 28 28 28 28 29 30 31 32 32 33 33 34 35 36 38 39 41 42 43 44 45 46 47 48 49 49 50
36 35 37 37 32 32 31 30 30 30 26 27 28 29 28 28 28 27 27 28 28 29 30 31 31 32 33 34 36 36 37 39 40 41 42 43 44 45 46 47 48 48 49 50
38 37 39 32 29 30 29 29 29 29 27 28 28 28 28 28 28 28 28 29 29 29 30 31 32 32 34 35 36 37 38 39 40 41 42 43 44 45 46 47 48 49 50 52
39 39 38 33 28 28 29 28 28 28 27 27 28 27 27 27 27 27 28 29 29 30 30 31 32 33 34 35 37 37 38 39 40 41 42 43 44 45 46 47 48 50 51 53
40 39 37 31 29 29 30 29 27 27 27 27 27 27 25 27 27 27 28 29 29 30 31 32 33 33 35 36 36 37 38 39 40 41 42 43 44 45 47 48 49 51 53 55
38 38 36 32 29 30 30 27 26 27 26 27 26 26 26 27 27 28 28 29 29 30 30 31 33 34 35 36 36 38 38 39 40 41 42 44 45 46 48 49 51 53 55 58
38 38 34 31 31 30 29 28 27 27 26 26 26 26 26 27 27 27 28 28 29 29 30 32 33 34 35 36 37 38 39 40 41 42 43 44 45 47 49 51 53 56 58 61
36 33 31 31 30 30 29 28 27 27 26 26 26 26 26 27 27 28 28 28 29 30 32 33 34 35 36 37 38 38 39 40 41 42 43 44 46 48 51 53 56 59 62 64
36 34 32 31 30 30 30 29 28 27 27 26 26 26 27 27 28 28 29 30 31 32 33 34 35 36 37 37 38 38 39 40 41 42 44 46 49 51 54 57 59 62 65 67
36 33 33 32 31 31 31 29 28 28 27 27 27 27 27 28 28 29 30 31 32 33 34 35 36 36 37 37 38 39 40 41 42 44 46 49 51 54 57 59 63 65 68 70
33 32 33 32 32 32 31 30 29 29 28 28 27 27 28 29 29 30 31 32 33 34 34 35 36 36 37 38 38 39 41 43 45 47 49 52 55 57 60 63 65 68 71 74
34 33 33 32 32 32 32 31 30 29 29 28 28 29 29 30 30 31 32 33 34 34 35 35 36 36 37 38 40 42 43 45 48 50 53 56 58 61 63 65 68 71 74 76
34 33 33 32 32 32 32 31 31 30 29 29 29 30 30 31 31 32 33 33 34 35 35 35 36 37 38 40 42 44 46 48 51 54 56 59 62 64 67 69 71 73 75 77
33 33 33 33 32 32 32 31 31 30 30 30 30 31 31 32 32 33 33 34 34 35 36 36 37 39 41 42 44 46 49 51 54 57 60 62 65 68 70 73 74 75 76 77
33 34 33 33 32 32 31 31 30 30 31 31 31 31 32 33 33 33 34 34 35 36 36 38 40 41 43 44 47 49 52 54 57 60 63 65 68 71 73 75 76 76 76 76
34 33 33 32 32 31 31 31 30 31 31 31 31 32 32 32 33 34 34 35 36 37 38 40 41 43 45 47 50 52 55 57 61 63 66 68 71 73 75 76 76 75 74 73
33 33 32 32 32 31 30 30 30 30 30 30 31 31 32 32 33 34 35 36 37 39 40 41 43 46 48 50 52 55 58 61 63 66 68 70 73 74 75 75 73 72 72 71
32 32 32 32 31 30 30 30 30 30 30 30 30 31 32 33 33 35 36 37 38 40 42 44 46 49 51 53 56 58 61 63 65 67 71 73 74 74 74 73 72 71 70 66
31 31 31 31 31 30 30 29 29 29 30 30 31 31 32 33 34 35 37 38 40 42 44 46 49 51 53 56 58 61 63 65 68 71 73 73 74 73 72 71 70 68 64 60
30 30 30 30 29 29 29 29 29 30 30 30 31 31 32 34 35 36 38 40 42 44 46 49 51 53 56 58 60 63 65 68 71 73 73 73 72 70 70 69 66 62 58 54
28 28 29 29 28 28 28 28 29 29 30 30 31 32 33 35 37 38 40 42 44 46 49 51 53 55 58 60 62 65 67 70 72 72 72 71 70 69 67 64 60 55 52 50
27 27 28 28 28 27 28 28 29 29 30 31 32 34 35 37 39 40 42 44 46 48 50 52 54 57 59 62 64 67 69 71 72 71 70 69 68 66 62 57 53 50 47 45
27 27 28 28 28 28 28 29 30 31 32 33 34 36 37 39 40 42 44 46 48 50 52 54 56 59 61 64 66 69 70 71 71 70 68 66 64 59 54 50 48 46 43 41
28 28 28 28 28 29 29 30 31 32 33 35 36 37 39 40 42 44 46 47 49 51 53 55 58 61 63 66 68 70 70 70 69 66 64 60 56 52 48 46 44 42 39 37
28 28 29 29 30 30 31 32 33 34 35 36 37 39 40 42 43 45 47 48 50 52 54 57 60 63 64 67 69 69 69 67 65 62 57 53 50 47 44 41 39 37 35 32
28 29 29 30 30 31 32 33 34 35 36 37 39 40 41 43 44 46 47 49 51 54 56 60 62 63 66 67 68 67 65 62 58 54 50 47 45 42 39 37 35 33 31 28
Wind_Direction
235 238 240 243 245 247 251 255 260 263 264 266 268 269 271 272 273 273 274 275 276 276 277 277 279 280 281 282 283 285 286 286 287 288 289 291 293 294 296 297 297 298 298 299
235 237 240 242 245 248 252 255 260 262 265 265 265 268 271 273 274 274 275 276 276 277 277 278 280 281 282 283 285 286 287 288 289 290 291 292 293 295 296 297 297 298 299 300
234 237 241 243 246 250 253 256 259 263 264 263 265 268 271 273 274 275 275 276 276 277 278 279 280 281 282 284 285 287 288 288 290 291 292 293 294 295 296 297 298 298 299 300
233 236 241 244 244 248 252 255 259 262 262 264 266 268 271 274 276 276 277 278 278 279 279 280 281 282 283 285 287 288 289 289 290 291 292 293 294 295 296 297 298 299 300 301
233 237 241 243 246 249 253 256 259 261 262 264 267 270 272 274 277 278 278 279 280 280 281 282 282 284 285 287 288 288 289 290 291 292 293 294 295 296 297 298 299 300 301 302
234 237 241 243 245 249 254 256 258 260 262 264 268 270 273 275 278 279 279 280 281 281 282 283 284 285 287 288 289 289 290 291 292 292 293 295 296 297 298 299 300 301 302 303
236 239 242 245 246 249 253 256 255 258 262 265 268 272 274 276 279 280 281 282 282 283 284 284 286 287 288 289 290 291 292 292 293 293 294 296 297 297 298 299 301 302 303 304
237 240 243 245 247 249 252 254 256 259 262 265 268 271 274 277 279 281 282 283 284 285 286 287 287 288 289 290 292 292 293 293 294 295 296 297 298 299 300 301 302 303 304 305
238 242 245 245 248 250 252 254 257 260 263 265 269 272 275 277 279 281 283 283 285 286 287 288 289 290 291 292 293 293 294 294 295 296 297 298 299 300 301 303 304 305 305 306
236 238 242 245 249 251 253 255 258 261 264 266 269 272 275 278 280 282 283 284 286 287 287 289 290 291 292 293 293 294 295 296 297 298 299 300 301 302 303 304 305 306 306 307
237 238 242 245 248 250 252 255 259 262 264 267 269 273 276 279 281 282 283 285 287 288 289 290 291 292 293 294 295 296 297 298 299 300 301 302 303 304 305 306 307 307 308 308
238 240 243 245 246 249 251 255 259 263 266 268 270 272 276 280 282 283 285 287 288 289 290 291 293 294 295 296 297 298 299 300 301 301 302 303 304 305 306 307 308 308 309 309
236 238 242 244 246 249 252 256 260 264 266 268 270 273 277 280 282 284 286 287 289 290 291 293 294 295 296 297 298 299 300 301 302 303 304 304 305 306 307 308 309 309 309 310
237 239 242 245 248 251 253 256 260 263 266 268 270 274 277 280 282 284 286 288 289 290 292 294 295 296 297 298 299 301 302 303 303 304 305 306 307 307 308 309 309 309 310 310
237 240 243 247 249 251 253 256 260 263 266 269 272 275 278 280 283 285 286 288 290 291 293 294 295 297 298 300 301 302 303 304 305 306 306 307 308 308 309 310 310 310 310 310
238 241 244 247 250 251 254 257 260 264 267 270 273 275 278 280 282 284 286 289 290 292 293 295 296 298 299 301 302 304 305 305 306 307 308 308 309 309 310 310 311 311 311 311
241 244 246 248 250 252 254 258 261 265 268 269 272 275 277 279 281 284 286 288 290 292 294 296 297 299 301 302 303 305 306 307 308 308 309 309 310 311 311 311 312 312 312 313
243 245 246 248 250 252 256 260 263 265 266 269 272 274 277 279 282 284 287 289 291 293 295 297 299 300 302 303 305 306 307 308 309 310 310 311 311 311 312 312 312 312 313 313
244 245 247 249 251 253 257 260 262 264 266 268 271 274 277 280 283 285 288 290 292 294 296 299 300 302 304 305 306 307 308 309 310 310 311 311 312 312 312 312 312 313 313 313
242 243 245 248 251 254 257 259 261 263 265 269 271 275 278 281 284 287 289 291 294 296 298 300 302 304 305 306 307 308 309 310 311 311 312 312 312 312 312 312 313 313 313 313
240 242 245 248 250 253 255 258 260 263 266 269 272 276 279 283 286 288 291 293 296 298 300 302 303 305 306 307 308 309 310 311 311 312 312 313 313 313 313 313 313 313 313 313
239 241 243 246 249 252 255 258 260 263 266 270 274 277 281 284 287 290 293 295 297 299 301 303 304 305 307 308 309 310 311 312 313 313 313 313 313 313 313 313 312 313 313 313
237 239 242 245 249 252 255 258 261 265 268 272 276 279 282 286 289 292 294 297 299 300 302 303 305 307 308 310 311 312 312 313 313 314 314 314 314 313 313 312 312 313 313 313
238 240 243 246 250 253 256 259 263 267 270 274 278 281 284 287 290 293 296 298 300 301 303 305 307 308 310 311 312 313 313 314 314 314 314 314 314 314 313 312 312 313 313 313
240 242 245 249 252 255 258 262 265 269 273 277 280 283 286 289 292 294 297 299 301 303 305 306 308 310 312 313 313 314 315 315 315 315 315 315 315 314 314 314 313 313 313 313
243 247 250 252 255 258 261 265 268 272 276 279 282 285 288 290 293 296 298 300 302 304 306 308 310 311 313 314 314 315 315 315 316 316 316 316 316 315 315 315 315 315 315 314
247 250 252 254 257 260 264 268 271 275 278 281 284 287 290 293 295 297 299 301 304 306 308 310 311 312 314 315 315 316 316 316 317 317 317 317 317 317 317 317 317 317 316 315
Height
5689 5693 5697 5699 5702 5704 5705 5707 5709 5712 5712 5714 5712 5711 5712 5712 5712 5712 5712 5711 5711 5711 5710 5709 5708 5707 5705 5704 5702 5700 5698 5695 5692 5689 5685 5681 5677 5673 5668 5664 5659 5654 5648 5643
5681 5684 5687 5690 5693 5695 5697 5700 5701 5702 5705 5705 5704 5704 5704 5704 5704 5704 5704 5704 5703 5703 5702 5701 5700 5698 5697 5695 5693 5690 5688 5685 5682 5678 5675 5671 5666 5662 5657 5652 5647 5642 5637 5631
5674 5676 5678 5681 5687 5689 5690 5692 5693 5694 5698 5696 5696 5696 5696 5697 5697 5696 5696 5696 5695 5694 5693 5692 5691 5689 5688 5685 5683 5681 5678 5675 5671 5668 5664 5660 5655 5651 5646 5641 5636 5630 5625 5619
5664 5668 5669 5678 5680 5681 5683 5685 5686 5687 5688 5688 5689 5689 5689 5689 5689 5689 5688 5688 5687 5686 5685 5683 5682 5680 5678 5676 5673 5671 5668 5664 5661 5657 5653 5649 5644 5639 5634 5629 5624 5618 5613 5606
5656 5658 5663 5669 5673 5674 5675 5677 5678 5679 5680 5680 5680 5681 5682 5682 5681 5681 5680 5679 5678 5677 5676 5674 5673 5671 5669 5666 5663 5660 5657 5654 5650 5646 5642 5638 5633 5628 5623 5618 5612 5606 5600 5594
5648 5651 5655 5664 5666 5666 5668 5670 5672 5671 5672 5673 5673 5674 5675 5674 5673 5673 5672 5671 5670 5668 5667 5665 5663 5661 5659 5656 5653 5650 5647 5643 5639 5635 5631 5626 5622 5616 5611 5606 5600 5594 5587 5580
5640 5644 5648 5654 5657 5658 5661 5664 5664 5664 5665 5665 5666 5667 5667 5666 5665 5664 5663 5662 5661 5659 5658 5656 5654 5652 5649 5646 5643 5640 5636 5632 5628 5624 5620 5615 5610 5605 5599 5594 5588 5581 5575 5567
5632 5636 5644 5647 5649 5651 5654 5654 5655 5656 5657 5658 5659 5659 5658 5658 5657 5656 5655 5654 5652 5651 5649 5647 5645 5642 5639 5636 5633 5629 5625 5622 5617 5613 5608 5603 5598 5593 5587 5581 5574 5567 5560 5552
5627 5633 5636 5638 5641 5643 5645 5646 5647 5649 5650 5650 5651 5651 5651 5650 5649 5648 5647 5645 5644 5642 5640 5638 5635 5632 5629 5626 5622 5618 5615 5611 5606 5602 5597 5592 5586 5580 5574 5567 5560 5552 5544 5536
5618 5623 5626 5629 5632 5634 5636 5638 5639 5641 5642 5643 5643 5643 5642 5642 5641 5640 5638 5637 5635 5633 5630 5628 5625 5622 5619 5615 5612 5608 5604 5599 5595 5590 5585 5580 5574 5567 5560 5553 5545 5536 5528 5519
5609 5614 5618 5620 5624 5626 5628 5630 5632 5633 5634 5634 5635 5635 5634 5633 5632 5631 5629 5627 5625 5623 5621 5618 5615 5612 5608 5605 5601 5597 5593 5588 5584 5578 5573 5567 5561 5553 5546 5538 5528 5519 5510 5501
5603 5608 5610 5613 5615 5617 5619 5622 5623 5624 5625 5626 5626 5626 5625 5624 5623 5622 5620 5618 5616 5614 5611 5608 5605 5602 5598 5594 5590 5586 5582 5577 5572 5566 5560 5554 5547 5540 5531 5522 5513 5502 5492 5482
5595 5598 5601 5604 5606 5608 5611 5613 5615 5616 5617 5617 5617 5617 5616 5615 5614 5613 5611 5609 5606 5604 5601 5598 5595 5591 5588 5584 5579 5575 5570 5565 5559 5553 5547 5539 5532 5524 5517 5508 5497 5486 5475 5464
5586 5589 5592 5596 5598 5600 5602 5604 5606 5607 5608 5608 5608 5608 5607 5606 5605 5603 5601 5599 5596 5594 5591 5588 5585 5581 5577 5573 5568 5563 5558 5552 5546 5539 5532 5524 5516 5508 5499 5490 5481 5471 5459 5446
5578 5581 5584 5587 5589 5592 5594 5596 5597 5598 5599 5599 5599 5598 5598 5597 5595 5593 5591 5589 5586 5584 5581 5578 5574 5570 5566 5561 5556 5551 5545 5539 5532 5525 5517 5509 5500 5491 5481 5471 5461 5451 5440 5429
5569 5572 5575 5578 5581 5583 5585 5587 5588 5589 5590 5590 5589 5589 5588 5587 5585 5583 5581 5579 5577 5574 5571 5567 5563 5559 5554 5549 5544 5538 5532 5525 5518 5510 5501 5492 5483 5473 5463 5452 5442 5431 5420 5409
5561 5564 5567 5570 5572 5574 5576 5578 5579 5580 5580 5580 5580 5579 5578 5577 5575 5573 5571 5569 5566 5563 5560 5556 5552 5547 5542 5537 5531 5525 5518 5511 5503 5494 5485 5475 5465 5455 5444 5433 5422 5412 5401 5390
5553 5555 5558 5561 5563 5566 5567 5569 5570 5570 5570 5570 5570 5569 5568 5567 5565 5563 5561 5559 5556 5552 5549 5545 5540 5535 5530 5524 5518 5511 5504 5496 5487 5478 5469 5459 5448 5437 5426 5415 5404 5393 5383 5372
5544 5547 5550 5552 5555 5557 5558 5559 5560 5561 5561 5561 5560 5560 5559 5557 5555 5553 5551 5548 5545 5541 5537 5533 5528 5523 5517 5511 5504 5497 5489 5480 5471 5462 5452 5441 5430 5419 5408 5397 5386 5375 5365 5355
5535 5538 5541 5543 5545 5547 5549 5550 5551 5551 5551 5551 5551 5550 5549 5547 5545 5543 5540 5537 5534 5530 5525 5521 5515 5510 5503 5497 5489 5482 5473 5464 5455 5445 5435 5424 5413 5402 5390 5380 5369 5358 5348 5339
5527 5530 5532 5534 5536 5538 5539 5540 5541 5542 5542 5542 5541 5540 5539 5537 5535 5532 5529 5526 5522 5518 5513 5508 5502 5496 5490 5483 5475 5466 5458 5448 5439 5428 5417 5406 5395 5384 5373 5363 5352 5343 5334 5325
5519 5521 5523 5526 5527 5529 5530 5531 5532 5532 5532 5532 5531 5530 5529 5527 5524 5521 5518 5515 5510 5506 5500 5495 5489 5483 5476 5468 5460 5451 5442 5432 5421 5410 5399 5388 5378 5367 5357 5346 5337 5328 5320 5312
5510 5513 5515 5517 5519 5520 5521 5522 5523 5523 5523 5522 5521 5520 5518 5516 5513 5510 5507 5503 5498 5493 5487 5482 5476 5469 5461 5453 5444 5435 5425 5415 5404 5393 5382 5371 5361 5350 5340 5331 5323 5315 5308 5301
5502 5505 5507 5509 5510 5511 5512 5513 5513 5513 5513 5512 5511 5509 5507 5505 5502 5498 5494 5490 5485 5480 5474 5468 5462 5454 5446 5438 5429 5419 5409 5398 5387 5376 5365 5355 5344 5334 5325 5317 5310 5303 5297 5290
5494 5496 5498 5500 5501 5502 5503 5503 5504 5504 5503 5502 5500 5498 5496 5493 5490 5486 5482 5478 5473 5467 5461 5455 5448 5440 5431 5422 5413 5403 5392 5381 5370 5360 5349 5339 5330 5321 5313 5305 5298 5292 5286 5280
5486 5488 5490 5491 5492 5493 5494 5494 5494 5493 5492 5491 5489 5487 5484 5481 5478 5474 5470 5465 5460 5454 5448 5441 5433 5425 5416 5406 5397 5386 5376 5365 5355 5344 5335 5325 5317 5309 5302 5295 5288 5282 5277 5272
5477 5479 5480 5482 5483 5483 5484 5484 5483 5482 5481 5480 5478 5475 5472 5469 5465 5461 5457 5452 5447 5440 5433 5426 5418 5409 5400 5391 5381 5370 5360 5350 5340 5331 5323 5314 5307 5299 5292 5286 5280 5274 5269 5264